TimeCDT,TemperatureF,Dew PointF,Humidity,Sea Level PressureIn,VisibilityMPH,Wind Direction,Wind SpeedMPH,Gust SpeedMPH,PrecipitationIn,Events,Conditions,WindDirDegrees,DateUTC
12:15 AM,57.9,52.0,81,30.08,10.0,WSW,4.6,-,N/A,,Clear,240,2013-08-19 05:15:00
12:35 AM,59.7,52.9,78,30.07,10.0,SSW,3.5,-,N/A,,Clear,210,2013-08-19 05:35:00
12:55 AM,60.1,52.9,77,30.07,10.0,SSW,3.5,-,N/A,,Clear,210,2013-08-19 05:55:00
1:15 AM,58.6,52.5,80,30.07,10.0,Calm,Calm,-,N/A,,Clear,0,2013-08-19 06:15:00
1:35 AM,57.0,51.8,83,30.06,10.0,SW,3.5,-,N/A,,Clear,220,2013-08-19 06:35:00
1:55 AM,56.3,54.7,94,30.06,10.0,Calm,Calm,-,N/A,,Clear,0,2013-08-19 06:55:00
2:15 AM,57.7,55.2,91,30.06,10.0,Calm,Calm,-,N/A,,Clear,0,2013-08-19 07:15:00
2:35 AM,55.4,54.7,97,30.05,10.0,Calm,Calm,-,N/A,,Clear,0,2013-08-19 07:35:00
2:55 AM,54.9,54.3,98,30.05,10.0,Calm,Calm,-,N/A,,Clear,0,2013-08-19 07:55:00
3:15 AM,55.9,55.2,97,30.04,10.0,Calm,Calm,-,N/A,,Clear,0,2013-08-19 08:15:00
3:35 AM,54.5,54.3,99,30.04,10.0,Calm,Calm,-,N/A,,Clear,0,2013-08-19 08:35:00
3:55 AM,55.6,54.9,97,30.04,10.0,Calm,Calm,-,N/A,,Clear,0,2013-08-19 08:55:00
4:15 AM,54.9,54.7,99,30.04,10.0,Calm,Calm,-,N/A,,Clear,0,2013-08-19 09:15:00
4:35 AM,54.7,54.3,99,30.04,10.0,Calm,Calm,-,N/A,,Clear,0,2013-08-19 09:35:00
4:55 AM,54.1,54.1,100,30.04,7.0,Calm,Calm,-,N/A,,Clear,0,2013-08-19 09:55:00
5:15 AM,55.6,54.9,97,30.04,10.0,Calm,Calm,-,N/A,,Clear,0,2013-08-19 10:15:00
5:35 AM,56.3,55.4,97,30.04,10.0,Calm,Calm,-,N/A,,Clear,0,2013-08-19 10:35:00
5:55 AM,55.8,55.2,98,30.04,10.0,Calm,Calm,-,N/A,,Clear,0,2013-08-19 10:55:00
6:15 AM,55.4,54.9,98,30.04,7.0,Calm,Calm,-,N/A,,Clear,0,2013-08-19 11:15:00
6:35 AM,56.1,55.6,98,30.03,10.0,SSW,3.5,-,N/A,,Clear,210,2013-08-19 11:35:00
6:55 AM,57.6,56.3,96,30.03,10.0,SSW,3.5,-,N/A,,Mostly Cloudy,210,2013-08-19 11:55:00
7:15 AM,58.5,56.5,93,30.02,10.0,SSW,4.6,-,N/A,,Mostly Cloudy,200,2013-08-19 12:15:00
7:35 AM,59.9,56.3,88,30.02,10.0,SW,4.6,-,N/A,,Scattered Clouds,220,2013-08-19 12:35:00
7:55 AM,61.2,56.8,86,30.04,10.0,WSW,4.6,-,N/A,,Scattered Clouds,240,2013-08-19 12:55:00
8:15 AM,61.7,57.7,87,30.05,10.0,WSW,4.6,-,N/A,,Overcast,240,2013-08-19 13:15:00
8:35 AM,63.1,57.0,80,30.04,10.0,SW,5.8,-,N/A,,Overcast,230,2013-08-19 13:35:00
8:55 AM,64.8,55.9,73,30.04,10.0,SW,5.8,-,N/A,,Scattered Clouds,230,2013-08-19 13:55:00
9:15 AM,65.7,56.1,71,30.04,10.0,WSW,6.9,-,N/A,,Scattered Clouds,240,2013-08-19 14:15:00
9:35 AM,66.9,56.7,70,30.04,10.0,SW,5.8,-,N/A,,Scattered Clouds,230,2013-08-19 14:35:00
9:55 AM,69.1,56.8,65,30.03,10.0,WSW,8.1,-,N/A,,Scattered Clouds,240,2013-08-19 14:55:00
10:15 AM,69.3,57.0,65,30.03,10.0,WSW,11.5,-,N/A,,Clear,250,2013-08-19 15:15:00
10:35 AM,70.0,57.0,63,30.02,10.0,SW,15.0,19.6,N/A,,Clear,230,2013-08-19 15:35:00
10:55 AM,71.2,57.2,61,30.02,10.0,SW,13.8,19.6,N/A,,Clear,230,2013-08-19 15:55:00
11:15 AM,72.9,58.6,61,30.01,10.0,WSW,12.7,16.1,N/A,,Clear,240,2013-08-19 16:15:00
11:35 AM,73.8,58.6,59,30.00,10.0,SW,10.4,17.3,N/A,,Clear,220,2013-08-19 16:35:00
11:55 AM,74.5,58.8,58,30.00,10.0,SW,11.5,19.6,N/A,,Clear,230,2013-08-19 16:55:00
12:15 PM,74.3,58.3,57,29.99,10.0,SW,11.5,-,N/A,,Clear,220,2013-08-19 17:15:00
12:35 PM,75.2,59.0,57,29.99,10.0,SW,10.4,24.2,N/A,,Clear,220,2013-08-19 17:35:00
12:55 PM,75.9,59.5,57,29.99,10.0,SW,12.7,20.7,N/A,,Clear,230,2013-08-19 17:55:00
1:15 PM,77.0,60.3,56,29.99,10.0,WSW,12.7,24.2,N/A,,Scattered Clouds,240,2013-08-19 18:15:00
1:35 PM,77.4,60.4,56,29.99,10.0,SW,11.5,17.3,N/A,,Mostly Cloudy,230,2013-08-19 18:35:00
1:55 PM,77.4,59.9,55,29.99,10.0,WSW,16.1,20.7,N/A,,Mostly Cloudy,250,2013-08-19 18:55:00
2:15 PM,77.5,59.9,54,29.99,10.0,WSW,18.4,23.0,N/A,,Scattered Clouds,240,2013-08-19 19:15:00
2:35 PM,77.5,60.3,55,29.99,10.0,SW,12.7,23.0,N/A,,Scattered Clouds,220,2013-08-19 19:35:00
2:55 PM,77.7,59.9,54,29.99,10.0,SW,17.3,24.2,N/A,,Mostly Cloudy,230,2013-08-19 19:55:00
3:15 PM,76.6,60.4,57,29.99,10.0,SW,12.7,19.6,N/A,,Overcast,230,2013-08-19 20:15:00
3:35 PM,78.1,60.8,55,29.99,10.0,WSW,12.7,18.4,N/A,,Mostly Cloudy,240,2013-08-19 20:35:00
3:55 PM,78.3,61.0,55,29.98,10.0,SW,10.4,18.4,N/A,,Mostly Cloudy,230,2013-08-19 20:55:00
4:15 PM,77.4,60.8,57,29.97,10.0,SW,9.2,25.3,N/A,,Mostly Cloudy,230,2013-08-19 21:15:00
4:35 PM,77.9,61.0,56,29.97,10.0,WSW,11.5,-,N/A,,Overcast,240,2013-08-19 21:35:00
4:55 PM,78.8,60.8,54,29.97,10.0,WSW,15.0,-,N/A,,Mostly Cloudy,250,2013-08-19 21:55:00
5:15 PM,78.8,60.1,53,29.97,10.0,WSW,16.1,25.3,N/A,,Scattered Clouds,240,2013-08-19 22:15:00
5:35 PM,78.1,60.3,54,29.98,10.0,West,15.0,26.5,N/A,,Scattered Clouds,260,2013-08-19 22:35:00
5:55 PM,77.4,60.1,55,29.98,10.0,WSW,15.0,-,N/A,,Scattered Clouds,250,2013-08-19 22:55:00
6:15 PM,77.2,60.3,56,29.97,10.0,WSW,16.1,20.7,N/A,,Scattered Clouds,250,2013-08-19 23:15:00
6:35 PM,76.5,60.6,58,29.97,10.0,WSW,13.8,19.6,N/A,,Clear,250,2013-08-19 23:35:00
6:55 PM,75.4,61.0,61,29.97,10.0,WSW,11.5,-,N/A,,Clear,240,2013-08-19 23:55:00
7:15 PM,74.7,60.8,62,29.97,10.0,SW,6.9,16.1,N/A,,Clear,230,2013-08-20 00:15:00
7:35 PM,73.8,61.2,65,29.96,10.0,SW,5.8,-,N/A,,Clear,220,2013-08-20 00:35:00
7:55 PM,72.5,61.2,67,29.97,10.0,SW,5.8,-,N/A,,Clear,230,2013-08-20 00:55:00
8:15 PM,71.6,61.0,69,29.97,10.0,SW,4.6,-,N/A,,Clear,220,2013-08-20 01:15:00
8:35 PM,71.1,61.2,71,29.97,10.0,Calm,Calm,-,N/A,,Clear,0,2013-08-20 01:35:00
8:55 PM,70.2,61.2,73,29.98,10.0,SSW,3.5,-,N/A,,Clear,200,2013-08-20 01:55:00
9:15 PM,69.3,61.0,75,29.99,10.0,SW,3.5,-,N/A,,Clear,220,2013-08-20 02:15:00
9:35 PM,67.1,60.6,80,29.99,10.0,SSW,3.5,-,N/A,,Clear,210,2013-08-20 02:35:00
9:55 PM,68.0,61.2,79,29.99,10.0,Calm,Calm,-,N/A,,Clear,0,2013-08-20 02:55:00
10:15 PM,66.6,60.6,81,29.99,10.0,Calm,Calm,-,N/A,,Clear,0,2013-08-20 03:15:00
10:35 PM,66.6,63.0,88,29.99,10.0,Calm,Calm,-,N/A,,Clear,0,2013-08-20 03:35:00
10:55 PM,66.0,61.5,85,29.99,10.0,Calm,Calm,-,N/A,,Clear,0,2013-08-20 03:55:00
11:15 PM,66.4,61.2,83,29.99,10.0,Calm,Calm,-,N/A,,Clear,0,2013-08-20 04:15:00
11:35 PM,65.3,63.3,93,29.99,10.0,Calm,Calm,-,N/A,,Clear,0,2013-08-20 04:35:00
11:55 PM,64.9,62.6,92,29.99,10.0,WSW,4.6,-,N/A,,Clear,240,2013-08-20 04:55:00